Wind_Speed
6 7 7 8 8 8 8 8 9 9 10 10 11 12 12 13 13 13 13 14 15 16 17 18 19 20 21 21 22 22 23 24 24 25 25 25 25 25
7 8 8 9 9 9 9 10 11 11 11 12 13 13 13 14 15 15 16 16 17 18 19 20 21 22 23 24 25 25 26 26 26 26 27 27 27 27
9 9 9 10 10 10 11 11 12 13 13 13 13 14 15 16 17 17 18 19 19 20 21 22 23 24 25 25 26 27 28 28 28 28 28 29 29 29
10 10 11 11 12 12 13 13 14 14 15 15 15 16 17 17 18 19 20 21 22 22 23 23 24 25 26 27 27 28 29 29 29 30 30 30 30 30
12 12 13 14 14 15 15 16 16 16 17 17 18 18 18 19 19 20 21 22 23 23 24 25 26 26 27 28 29 29 30 30 30 30 30 31 32 33
13 14 14 15 15 16 16 17 18 19 19 20 20 21 20 21 22 23 24 24 24 25 25 26 27 27 29 29 29 30 30 31 32 32 33 33 34 35
14 14 15 15 16 16 17 18 19 20 21 21 22 22 22 23 24 24 25 25 26 26 27 28 28 28 29 29 30 30 31 32 33 34 35 36 37 38
16 16 16 16 17 18 18 19 20 21 22 23 23 24 24 24 25 25 26 26 27 28 28 28 29 30 30 31 32 32 33 34 35 36 37 38 39 39
17 17 18 19 19 19 20 20 21 22 23 24 24 24 25 25 26 26 27 27 28 28 29 30 31 31 32 33 33 34 35 36 37 38 39 40 40 40
18 18 19 20 20 21 21 22 23 24 25 25 25 26 26 27 27 28 28 29 30 31 31 31 32 33 33 35 36 37 37 38 39 40 40 41 41 41
19 20 20 21 22 23 24 25 25 26 26 26 27 28 29 29 29 30 30 30 30 31 33 33 33 34 35 36 37 38 39 40 40 40 41 41 41 42
21 22 22 23 24 25 26 26 27 27 27 28 28 29 29 30 30 31 31 31 32 32 33 34 35 36 36 38 39 39 39 40 41 42 42 43 43 44
23 24 24 25 26 26 27 28 28 29 29 29 29 30 30 31 32 33 33 34 34 35 36 36 37 38 38 38 39 40 41 41 41 42 43 44 45 46
24 25 26 26 27 27 28 29 29 30 30 30 31 31 32 33 34 35 35 36 36 37 37 38 38 39 40 39 39 40 41 43 44 44 45 46 47 48
26 26 27 28 28 29 30 30 31 31 31 32 32 33 33 34 35 36 37 37 38 38 39 40 41 41 42 42 42 42 42 44 45 46 47 48 49 50
26 27 28 29 29 30 30 31 32 32 32 33 33 34 35 36 37 38 38 39 40 41 42 43 44 44 44 45 45 45 46 47 47 49 49 50 51 52
28 29 29 30 30 30 31 32 31 32 33 34 34 36 37 38 39 40 41 41 43 43 44 45 46 47 47 47 47 48 48 49 50 50 51 51 52 53
28 29 29 29 29 29 30 31 32 33 34 35 36 37 38 39 40 41 42 43 44 45 45 46 46 47 47 47 48 49 49 50 50 51 51 52 51 52
28 29 29 30 30 31 31 32 33 34 35 36 37 38 39 40 41 42 43 43 44 45 46 46 46 47 47 46 47 49 50 50 51 51 52 53 53 53
30 30 31 31 32 33 34 34 35 36 37 38 38 39 40 41 42 43 44 44 45 45 46 46 47 47 48 48 47 48 50 51 52 52 52 53 52 52
31 32 33 34 34 35 36 36 37 38 38 39 40 41 42 43 44 44 45 46 47 46 46 47 48 48 49 49 49 49 50 51 52 52 52 52 51 50
33 33 35 36 36 36 37 37 39 40 40 41 42 43 44 44 45 46 46 47 47 47 48 48 49 49 49 49 50 50 50 50 51 52 52 52 51 49
34 35 36 36 36 37 38 39 40 41 41 42 43 44 45 45 46 47 47 48 48 48 48 48 48 48 49 49 50 50 50 50 50 50 50 51 50 49
Wind_Direction
323 323 323 319 313 309 307 306 305 301 297 297 296 294 292 291 290 288 288 289 290 289 287 286 286 286 288 287 287 288 287 286 287 288 288 287 287 286
317 318 318 316 314 310 307 304 303 303 299 296 295 294 294 293 292 290 290 291 291 289 288 289 290 290 289 288 287 287 287 287 287 287 287 288 288 286
310 313 314 313 310 308 306 306 305 304 301 299 297 293 293 293 291 291 292 290 291 291 292 292 294 292 291 291 289 286 285 285 286 286 286 287 287 286
303 304 306 307 306 305 304 304 304 303 301 298 296 296 295 294 291 290 291 291 292 293 293 293 295 294 292 290 290 288 286 285 285 286 286 286 285 284
299 301 302 302 302 302 301 301 301 300 299 297 296 296 296 295 293 291 290 292 294 293 294 294 295 295 294 292 290 289 287 287 287 287 285 285 286 286
300 300 301 303 303 303 302 301 300 298 298 297 297 297 296 296 294 293 292 292 294 295 295 295 295 295 294 293 291 290 289 289 289 288 288 288 288 288
302 303 302 303 304 305 304 305 303 301 300 299 297 297 297 297 297 296 294 294 296 296 297 297 296 295 295 293 292 291 290 290 289 288 288 288 288 288
299 302 303 303 302 304 304 306 305 304 303 301 299 298 297 298 298 297 296 295 296 296 297 296 296 296 295 294 293 292 291 291 290 289 289 289 288 287
298 298 299 300 303 303 305 306 306 305 304 303 300 299 298 299 299 298 297 297 297 296 297 297 297 297 296 295 294 293 292 292 291 291 290 290 289 289
297 297 298 298 299 301 303 304 305 305 304 303 302 301 299 298 299 299 299 299 297 297 297 297 296 296 297 296 295 294 293 293 293 292 291 291 290 290
296 297 298 298 299 299 300 301 302 302 303 302 301 300 299 298 298 298 299 300 300 299 299 298 297 297 297 296 296 295 294 294 293 292 292 292 291 290
297 297 297 297 297 299 300 300 301 301 301 302 301 301 300 299 299 299 299 299 300 300 301 300 299 298 297 297 296 295 295 295 295 294 293 292 291 290
297 297 298 299 299 300 301 302 302 301 301 301 300 300 300 300 300 299 299 300 300 300 300 300 300 300 299 298 296 296 295 295 295 294 293 293 292 291
297 298 297 297 299 300 300 301 301 301 301 301 300 299 299 299 299 300 300 300 301 301 301 301 301 301 301 300 298 296 296 296 296 295 295 294 293 292
297 299 300 299 298 298 299 300 301 302 301 301 301 300 300 300 300 301 301 301 302 302 302 302 301 301 301 300 299 298 297 297 296 296 296 295 295 294
299 300 302 302 300 299 300 300 300 301 301 301 301 301 300 300 300 300 300 300 300 301 301 301 300 300 299 299 299 298 298 297 297 297 296 296 296 295
300 300 302 302 301 300 301 302 302 302 300 300 301 301 301 300 299 299 299 299 300 300 300 300 300 300 300 300 300 299 299 299 298 298 297 296 296 295
301 301 302 304 304 303 304 304 304 303 302 301 301 301 301 301 300 300 300 301 301 301 301 301 300 300 300 301 301 301 301 300 299 299 298 297 297 296
302 302 303 304 305 306 305 305 306 306 305 304 303 303 303 303 303 303 303 303 303 303 303 303 302 302 302 302 302 302 302 302 302 301 300 299 298 297
302 302 303 304 305 306 306 305 305 305 306 306 305 305 305 305 305 305 304 304 304 303 303 303 303 303 303 303 303 303 304 303 303 302 302 301 300 299
301 301 302 303 304 305 305 305 306 306 306 306 306 306 306 306 306 306 305 305 304 303 303 303 303 303 304 304 304 305 305 305 305 304 303 303 302 301
299 300 301 302 302 304 305 306 306 307 306 306 307 307 306 306 306 306 305 305 304 303 303 303 303 304 304 305 305 306 306 306 305 306 306 305 304 303
300 300 301 302 302 304 305 305 306 307 307 307 308 308 308 307 307 307 306 305 304 304 304 304 304 304 305 306 307 307 308 307 307 306 307 307 307 306
Height
5865 5864 5863 5862 5861 5861 5860 5860 5860 5859 5858 5857 5856 5856 5855 5854 5853 5852 5852 5851 5850 5849 5848 5847 5846 5845 5844 5843 5842 5841 5840 5839 5838 5837 5835 5834 5833 5832
5864 5863 5862 5861 5860 5859 5858 5858 5857 5857 5856 5855 5854 5853 5851 5850 5850 5849 5848 5847 5846 5845 5843 5842 5840 5839 5838 5836 5835 5834 5833 5831 5830 5829 5828 5827 5826 5825
5863 5862 5861 5860 5859 5858 5857 5856 5855 5854 5853 5852 5850 5849 5848 5847 5846 5845 5844 5843 5841 5839 5837 5836 5834 5832 5830 5829 5828 5826 5825 5824 5823 5822 5821 5820 5818 5817
5861 5860 5859 5858 5857 5855 5854 5853 5852 5851 5850 5848 5847 5846 5844 5843 5842 5840 5839 5837 5835 5833 5831 5829 5827 5825 5823 5822 5820 5818 5817 5816 5815 5814 5813 5811 5810 5809
5859 5858 5856 5855 5854 5853 5851 5850 5849 5847 5846 5845 5843 5841 5840 5838 5837 5835 5834 5832 5830 5827 5825 5823 5821 5818 5816 5814 5812 5811 5809 5808 5807 5805 5804 5802 5801 5799
5856 5855 5853 5852 5851 5849 5848 5846 5845 5843 5842 5840 5839 5837 5835 5833 5832 5830 5828 5826 5824 5821 5819 5816 5814 5811 5809 5807 5805 5803 5801 5800 5798 5796 5794 5793 5791 5789
5852 5851 5850 5848 5847 5845 5844 5842 5840 5839 5837 5835 5834 5832 5830 5828 5826 5824 5822 5819 5817 5815 5812 5810 5807 5804 5801 5799 5797 5795 5793 5791 5789 5787 5785 5783 5781 5779
5849 5847 5846 5845 5843 5841 5840 5838 5836 5834 5832 5830 5828 5826 5824 5821 5819 5817 5815 5813 5810 5808 5805 5802 5800 5797 5794 5791 5788 5786 5784 5782 5779 5777 5775 5772 5770 5768
5844 5843 5842 5840 5839 5837 5835 5833 5831 5828 5827 5824 5822 5820 5817 5815 5813 5810 5807 5805 5802 5800 5797 5794 5792 5789 5786 5782 5779 5777 5774 5772 5769 5766 5764 5761 5758 5755
5840 5838 5837 5835 5834 5832 5830 5828 5825 5823 5820 5818 5816 5813 5810 5808 5805 5803 5800 5797 5794 5791 5789 5786 5783 5780 5777 5773 5770 5767 5764 5761 5758 5755 5752 5749 5746 5743
5835 5833 5832 5830 5828 5826 5824 5822 5819 5817 5814 5811 5809 5806 5803 5800 5797 5795 5792 5789 5787 5783 5780 5777 5774 5771 5768 5764 5760 5757 5753 5750 5747 5743 5740 5737 5734 5731
5830 5828 5826 5824 5822 5820 5818 5815 5813 5810 5807 5804 5801 5798 5795 5792 5789 5787 5784 5781 5778 5775 5771 5768 5764 5761 5758 5754 5749 5745 5742 5738 5735 5731 5728 5725 5721 5718
5824 5822 5820 5818 5816 5814 5811 5808 5806 5803 5800 5797 5794 5791 5788 5785 5781 5778 5775 5772 5769 5765 5762 5758 5755 5750 5747 5743 5739 5734 5730 5727 5723 5719 5715 5712 5708 5705
5818 5816 5814 5811 5809 5807 5804 5801 5798 5795 5792 5789 5786 5783 5780 5776 5773 5770 5766 5762 5759 5755 5751 5747 5743 5739 5735 5731 5728 5724 5719 5714 5710 5706 5702 5698 5694 5690
5811 5809 5806 5804 5801 5799 5796 5793 5790 5787 5784 5781 5777 5774 5771 5767 5764 5760 5757 5753 5749 5745 5740 5736 5732 5728 5723 5719 5715 5711 5707 5703 5697 5693 5688 5684 5679 5675
5804 5802 5799 5796 5794 5791 5788 5785 5782 5778 5775 5772 5769 5765 5762 5758 5754 5750 5747 5743 5739 5734 5729 5725 5720 5715 5711 5706 5702 5697 5693 5688 5684 5679 5674 5669 5663 5658
5797 5795 5792 5789 5786 5783 5780 5776 5773 5770 5767 5763 5759 5756 5752 5748 5744 5740 5736 5731 5727 5723 5718 5713 5707 5702 5698 5693 5688 5683 5678 5673 5668 5663 5658 5653 5648 5641
5790 5787 5784 5781 5778 5775 5772 5768 5765 5761 5758 5754 5750 5746 5742 5737 5733 5729 5724 5719 5715 5709 5704 5699 5694 5690 5685 5679 5673 5668 5663 5658 5653 5647 5641 5636 5632 5625
5782 5780 5777 5774 5771 5767 5764 5760 5756 5752 5748 5744 5740 5736 5731 5727 5722 5717 5712 5707 5702 5697 5691 5686 5681 5676 5671 5667 5662 5654 5648 5643 5638 5632 5626 5619 5614 5609
5775 5772 5769 5766 5762 5759 5755 5751 5747 5743 5739 5735 5730 5725 5721 5716 5711 5705 5700 5695 5690 5684 5679 5673 5667 5662 5657 5652 5648 5642 5634 5628 5622 5616 5610 5604 5598 5591
5767 5764 5760 5757 5753 5750 5746 5742 5738 5733 5729 5724 5719 5714 5709 5704 5699 5693 5688 5682 5677 5671 5666 5660 5654 5648 5643 5637 5632 5627 5620 5612 5605 5599 5593 5588 5583 5577
5758 5754 5751 5747 5744 5740 5736 5732 5728 5723 5718 5713 5708 5703 5697 5692 5686 5681 5675 5669 5663 5658 5652 5647 5641 5635 5629 5623 5618 5612 5606 5599 5591 5584 5576 5570 5564 5559
5748 5745 5741 5737 5734 5730 5726 5722 5717 5712 5707 5702 5697 5691 5685 5680 5674 5668 5662 5656 5650 5644 5638 5633 5627 5621 5615 5609 5603 5597 5591 5585 5578 5572 5564 5555 5549 5543